Regional Weather Roundup
Issued by NWS

Home | Current Version | Previous Version | Text Only | Print | Product List | Glossary On
Versions: 1 2 3 4 5 6 7 8 9 10 11 12 13 14 15 16 17 18 19 20 21 22 23 24 25 26 27 28 29 30 31 32 33 34 35 36 37 38 39 40 41 42 43 44 45 46 47 48 49 50
000
ASCA44 KEWX 191820
RWRMX

LATIN AMERICA AND CARIBBEAN REGIONAL WEATHER ROUNDUP
NATIONAL WEATHER SERVICE AUSTIN/SAN ANTONIO TX
100 PM CDT SAT APR 19 2014

NOTE: "FAIR" INDICATED FEW OR NO CLOUDS BELOW 12,000 FEET WITH NO
SIGNIFICANT WEATHER AND/OR OBSTRUCTIONS TO VISIBILITY.

BAJA CALIFORNIA

CITY           SKY/WX    TMP DP  RH WIND       PRES   REMARKS
LORETO         SUNNY     77  61  57 E14       29.93S
LA PAZ         SUNNY     75  45  33 SW9       29.99
MEXICALI       SUNNY     81  46  30 E7        29.94
S.J. DEL CABO  MOSUNNY   79  55  44 E17       29.96R
TIJUANA        MOSUNNY   66  52  59 W9        30.03R

NORTHWESTERN MEXICO

CITY           SKY/WX    TMP DP  RH WIND       PRES   REMARKS
CULIACAN       MOSUNNY   84  66  54 S12       29.96
DURANGO        PTSUNNY   77  18  10 SW16      30.20
GUAYMAS        SUNNY     79  63  57 S7        29.90
HERMOSILLO     SUNNY     84  54  34 CALM      29.96
CD. JUAREZ     MOSUNNY   72  52  49 N9        30.01
LOS MOCHIS     MOSUNNY   79  61  53 S8        29.95F
OBREGON        SUNNY     81  54  39 SW5       29.92

NORTHEASTERN MEXICO

CITY           SKY/WX    TMP DP  RH WIND       PRES   REMARKS
CHIHUAHUA      MOSUNNY   79  39  24 NE5       30.05
MATAMOROS      CLOUDY    79  66  65 E12       30.13
MONCLOVA       CLOUDY    75  59  57 CALM      30.06
MONTERREY      CLOUDY    66  64  94 E7        30.09F FOG
NUEVO LAREDO   CLOUDY    79  59  50 SE9       30.11
PIEDRAS NEGRAS   N/A    N/A N/A N/A MISG        N/A
REYNOSA        CLOUDY    75  61  60 SE12      30.10
SALTILLO       CLOUDY    68  57  68 N9        30.20S
TORREON        PTSUNNY   82  48  30 SE6       30.06F
CD. VICTORIA   MOSUNNY   79  64  61 S14       30.08

WESTERN MEXICO

CITY           SKY/WX    TMP DP  RH WIND       PRES   REMARKS
AGUASCALIENTES MOSUNNY   75  43  31 S6        30.26
COLIMA         SUNNY     82  54  36 CALM      30.03F
DEL BAJIO      MOSUNNY   81  48  32 W7        30.24F
GUADALAJARA    MOSUNNY   81  45  28 NW14      30.17
MANZANILLO     PTSUNNY   82  73  74 S14       29.89F
MAZATLAN       PTSUNNY   82  64  54 SW9       29.94F
P. VALLARTA    PTSUNNY   84  68  58 SW14      29.94S
URUAPAN        MOSUNNY   77  54  44 S9        30.19F
ZACATECAS      PTSUNNY   77  34  20 SW17      30.29F

CENTRAL MEXICO

CITY           SKY/WX    TMP DP  RH WIND       PRES   REMARKS
CUERNAVACA     PTSUNNY   79  52  38 S7        30.15F
MEXICO CITY    MOSUNNY   70  48  46 NW5       30.34F
MORELIA        MOSUNNY   77  54  44 W5        30.24
POZA RICA      CLOUDY    81  70  69 S6        30.11S
QUERETARO      MOSUNNY   73  46  38 S6        30.28F
S. LUIS POTOSI MOSUNNY   72  52  49 N9        30.25F
TAMPICO        CLOUDY    75  68  78 E7        30.10F
TOLUCA         MOSUNNY   68  39  34 NW6       30.40F

SOUTHERN MEXICO

CITY           SKY/WX    TMP DP  RH WIND       PRES   REMARKS
ACAPULCO       SUNNY     88  73  62 SW7       29.85F HX  96
B. DE HUATULCO SUNNY     90  77  66 CALM      29.90  HX 102
OAXACA         CLOUDY    75  52  43 NW8       30.24F
P. ESCONDIDO   MOSUNNY   86  72  62 S8        30.02S HX  92
VERACRUZ       MOSUNNY   82  66  57 NE12      30.08
ZIHUATANEJO    MOSUNNY   86  73  66 SW8       29.88F HX  93

YUCATAN PENINSULA

CITY           SKY/WX    TMP DP  RH WIND       PRES   REMARKS
CAMPECHE       MOSUNNY   82  73  74 NW18      29.99F
CANCUN         PTSUNNY   84  72  65 N5        30.03F
CHETUMAL       MOSUNNY   86  77  74 CALM      29.98F HX  97
CD. DEL CARMEN MOSUNNY   81  73  78 NE12      29.99
COZUMEL        PTSUNNY   81  72  74 NE12      30.03F
MERIDA         PTSUNNY   88  63  42 NE12      30.02F
MINATITLAN     MOSUNNY   81  70  69 NW23      30.01
TAPACHULA      MOSUNNY   90  75  62 SW12      29.87F HX 100
TUX. GUTIERREZ PTSUNNY   86  64  48 NW9       29.98F
VILLAHERMOSA   PTSUNNY   84  73  70 NE12      30.02F HX  91

CENTRAL AMERICA

CITY           SKY/WX    TMP DP  RH WIND       PRES   REMARKS
BELIZE CITY    PTSUNNY   82  75  78 NE9       30.00F
MANAGUA        PTCLDY    93  68  43 NE14      29.83F HX  97

CARIBBEAN

CITY           SKY/WX    TMP DP  RH WIND       PRES   REMARKS
ARUBA            N/A    N/A N/A N/A MISG        N/A
CURACAO        MOSUNNY   86  73  66 E18       29.92F HX  93
KINGSTON       LGT RAIN  86  79  79 SE22      29.94S HX  99
NASSAU         PTSUNNY   86  75  70 S15       29.99S HX  95
SAN JUAN       MOSUNNY   84  72  65 E23G30    30.03F
SANTO DOMINGO  MOSUNNY   88  73  62 SE14      30.00S HX  96
ST. CROIX      HVY RAIN  77  72  83 SE15G22   30.04F
ST. KITTS      MOSUNNY   82  70  65 E16       30.03F
ST. THOMAS     LGT RAIN  79  73  83 E20       30.05F

$$




USA.gov is the U.S. government's official web portal to all federal, state and local government web resources and services.